When you browse on this site, cookies collect data to enhance your experience and personalize the content and advertising you see.
Visit our Privacy Policy to learn more. By continuing to use the site, you agree to this use of cookies and data.
  • In Lithuania
  • List of Countries
  • For 7 days
  • Water Temperature
  • Satellite Maps
  • Weather Map
  • Weather Widgets
  • user-avatar
    Login

    Hourly Weather Saint-Pierre i Miquelon

    Today, 16 July, Tuesday

    Time Temperature Precipitation Wind Pressure Humidity
    00:00 +15°C° 0.2 mm 2 mps 756 mmHg 98%
    01:00 +14°C° 0.2 mm 1 mps 756 mmHg 98%
    02:00 +14°C° 0.2 mm 1 mps 756 mmHg 98%
    03:00 +14°C° 1.4 mm 1 mps 756 mmHg 98%
    04:00 +14°C° 1.4 mm 1 mps 756 mmHg 98%
    05:00 +15°C° 1.4 mm 1 mps 756 mmHg 99%
    06:00 +15°C° 0.1 mm 1 mps 757 mmHg 97%
    07:00 +16°C° 0.1 mm 1 mps 757 mmHg 96%
    08:00 +16°C° 0.1 mm 2 mps 758 mmHg 95%
    09:00 +17°C° 0 mm 2 mps 758 mmHg 91%
    10:00 +18°C° 0 mm 3 mps 758 mmHg 86%
    11:00 +19°C° 0 mm 4 mps 758 mmHg 82%
    12:00 +20°C° 0 mm 4 mps 758 mmHg 80%
    13:00 +20°C° 0 mm 5 mps 758 mmHg 78%
    14:00 +20°C° 0 mm 6 mps 758 mmHg 76%
    15:00 +20°C° 0 mm 6 mps 758 mmHg 77%
    16:00 +19°C° 0 mm 6 mps 758 mmHg 78%
    17:00 +18°C° 0 mm 7 mps 758 mmHg 79%
    18:00 +17°C° 0 mm 6 mps 759 mmHg 83%
    19:00 +15°C° 0 mm 6 mps 759 mmHg 87%
    20:00 +14°C° 0 mm 6 mps 760 mmHg 91%
    21:00 +14°C° 0 mm 6 mps 760 mmHg 92%
    22:00 +14°C° 0 mm 5 mps 760 mmHg 92%
    23:00 +14°C° 0 mm 5 mps 760 mmHg 93%

    Tomorrow, 17 July, Wednesday

    Time Temperature Precipitation Wind Pressure Humidity
    00:00 +15°C° 0 mm 5 mps 760 mmHg 93%
    01:00 +15°C° 0 mm 4 mps 760 mmHg 93%
    02:00 +15°C° 0 mm 4 mps 761 mmHg 92%
    03:00 +15°C° 0 mm 4 mps 761 mmHg 93%
    04:00 +15°C° 0 mm 4 mps 761 mmHg 94%
    05:00 +15°C° 0 mm 4 mps 761 mmHg 94%
    06:00 +17°C° 0 mm 4 mps 761 mmHg 88%
    07:00 +19°C° 0 mm 4 mps 762 mmHg 82%
    08:00 +20°C° 0 mm 3 mps 762 mmHg 75%
    09:00 +21°C° 0 mm 4 mps 761 mmHg 71%
    10:00 +22°C° 0 mm 4 mps 761 mmHg 67%
    11:00 +23°C° 0 mm 4 mps 761 mmHg 63%
    12:00 +22°C° 0 mm 4 mps 761 mmHg 65%
    13:00 +22°C° 0 mm 5 mps 761 mmHg 67%
    14:00 +21°C° 0 mm 5 mps 761 mmHg 70%
    15:00 +20°C° 0 mm 5 mps 760 mmHg 73%
    16:00 +19°C° 0 mm 5 mps 760 mmHg 76%
    17:00 +17°C° 0 mm 5 mps 760 mmHg 80%
    18:00 +16°C° 0 mm 6 mps 760 mmHg 80%
    19:00 +16°C° 0 mm 6 mps 760 mmHg 81%
    20:00 +15°C° 0 mm 7 mps 760 mmHg 81%
    21:00 +15°C° 0 mm 7 mps 759 mmHg 86%
    22:00 +14°C° 0 mm 7 mps 759 mmHg 91%
    23:00 +13°C° 0 mm 8 mps 758 mmHg 95%

    Day after tomorrow, 18 July, Thursday

    Time Temperature Precipitation Wind Pressure Humidity
    00:00 +14°C° 2.3 mm 7 mps 757 mmHg 96%
    01:00 +15°C° 2.3 mm 7 mps 757 mmHg 97%
    02:00 +15°C° 2.3 mm 7 mps 756 mmHg 97%
    03:00 +15°C° 2 mm 7 mps 756 mmHg 97%
    04:00 +15°C° 2 mm 7 mps 755 mmHg 98%
    05:00 +15°C° 2 mm 7 mps 755 mmHg 98%
    06:00 +16°C° 0.6 mm 7 mps 755 mmHg 97%
    07:00 +16°C° 0.6 mm 8 mps 755 mmHg 96%
    08:00 +16°C° 0.6 mm 8 mps 756 mmHg 96%
    09:00 +17°C° 0 mm 9 mps 756 mmHg 86%
    10:00 +18°C° 0 mm 9 mps 756 mmHg 75%
    11:00 +19°C° 0 mm 10 mps 757 mmHg 65%
    12:00 +19°C° 0 mm 10 mps 757 mmHg 64%
    13:00 +19°C° 0 mm 10 mps 757 mmHg 62%
    14:00 +19°C° 0 mm 10 mps 757 mmHg 60%
    15:00 +18°C° 0 mm 10 mps 758 mmHg 63%
    16:00 +17°C° 0 mm 11 mps 758 mmHg 65%
    17:00 +16°C° 0 mm 11 mps 759 mmHg 68%
    18:00 +16°C° 0 mm 10 mps 759 mmHg 69%
    19:00 +14°C° 0 mm 10 mps 760 mmHg 69%
    20:00 +15°C° 0 mm 9 mps 761 mmHg 69%
    21:00 +13°C° 0 mm 8 mps 761 mmHg 73%
    22:00 +12°C° 0 mm 7 mps 761 mmHg 77%
    23:00 +12°C° 0 mm 7 mps 761 mmHg 81%

    19 July, Friday

    Time Temperature Precipitation Wind Pressure Humidity
    00:00 +12°C° 0 mm 7 mps 761 mmHg 80%
    01:00 +12°C° 0 mm 7 mps 761 mmHg 80%
    02:00 +11°C° 0 mm 8 mps 761 mmHg 79%
    03:00 +12°C° 0 mm 8 mps 761 mmHg 81%
    04:00 +12°C° 0 mm 8 mps 761 mmHg 83%
    05:00 +12°C° 0 mm 7 mps 761 mmHg 84%
    06:00 +13°C° 0 mm 8 mps 761 mmHg 79%
    07:00 +15°C° 0 mm 8 mps 761 mmHg 74%
    08:00 +17°C° 0 mm 8 mps 761 mmHg 69%
    09:00 +17°C° 0 mm 8 mps 761 mmHg 70%
    10:00 +17°C° 0 mm 9 mps 761 mmHg 71%
    11:00 +18°C° 0 mm 9 mps 760 mmHg 72%
    12:00 +18°C° 0 mm 9 mps 760 mmHg 69%
    13:00 +18°C° 0 mm 9 mps 760 mmHg 66%
    14:00 +18°C° 0 mm 8 mps 759 mmHg 63%
    15:00 +18°C° 0 mm 8 mps 759 mmHg 64%
    16:00 +17°C° 0 mm 7 mps 759 mmHg 64%
    17:00 +17°C° 0 mm 7 mps 759 mmHg 64%
    18:00 +16°C° 0 mm 7 mps 759 mmHg 67%
    19:00 +15°C° 0 mm 7 mps 759 mmHg 69%
    20:00 +14°C° 0 mm 6 mps 759 mmHg 71%
    21:00 +13°C° 0 mm 6 mps 759 mmHg 75%
    22:00 +13°C° 0 mm 6 mps 758 mmHg 80%
    23:00 +11°C° 0 mm 6 mps 758 mmHg 84%

    20 July, Saturday

    Time Temperature Precipitation Wind Pressure Humidity
    00:00 +13°C° 0 mm 6 mps 758 mmHg 82%
    01:00 +13°C° 0 mm 6 mps 757 mmHg 81%
    02:00 +13°C° 0 mm 6 mps 757 mmHg 80%
    03:00 +13°C° 0 mm 5 mps 757 mmHg 78%
    04:00 +13°C° 0 mm 5 mps 756 mmHg 77%
    05:00 +13°C° 0 mm 4 mps 756 mmHg 76%
    06:00 +13°C° 0 mm 5 mps 756 mmHg 76%
    07:00 +14°C° 0 mm 5 mps 755 mmHg 76%
    08:00 +15°C° 0 mm 6 mps 755 mmHg 77%
    09:00 +15°C° 0.1 mm 7 mps 754 mmHg 79%
    10:00 +15°C° 0.1 mm 8 mps 754 mmHg 82%
    11:00 +15°C° 0.1 mm 9 mps 753 mmHg 84%
    12:00 +14°C° 1.5 mm 10 mps 752 mmHg 88%
    13:00 +14°C° 1.5 mm 11 mps 751 mmHg 92%
    14:00 +13°C° 1.5 mm 12 mps 750 mmHg 97%
    15:00 +14°C° 0.4 mm 11 mps 750 mmHg 97%
    16:00 +14°C° 0.4 mm 10 mps 750 mmHg 97%
    17:00 +16°C° 0.4 mm 9 mps 750 mmHg 97%
    18:00 +16°C° 0 mm 8 mps 750 mmHg 97%
    19:00 +15°C° 0 mm 8 mps 750 mmHg 97%
    20:00 +15°C° 0 mm 8 mps 750 mmHg 97%
    21:00 +15°C° 0 mm 8 mps 750 mmHg 96%
    22:00 +13°C° 0 mm 9 mps 750 mmHg 95%
    23:00 +13°C° 0 mm 9 mps 750 mmHg 94%

    21 July, Sunday

    Time Temperature Precipitation Wind Pressure Humidity
    00:00 +12°C° 0 mm 9 mps 750 mmHg 92%
    01:00 +12°C° 0 mm 9 mps 750 mmHg 90%
    02:00 +12°C° 0 mm 9 mps 750 mmHg 88%
    03:00 +12°C° 0 mm 9 mps 751 mmHg 88%
    04:00 +12°C° 0 mm 9 mps 751 mmHg 87%
    05:00 +12°C° 0 mm 9 mps 751 mmHg 87%
    06:00 +13°C° 0 mm 10 mps 752 mmHg 81%
    07:00 +14°C° 0 mm 10 mps 752 mmHg 75%
    08:00 +16°C° 0 mm 11 mps 752 mmHg 69%
    09:00 +17°C° 0 mm 11 mps 752 mmHg 65%
    10:00 +17°C° 0 mm 11 mps 752 mmHg 62%
    11:00 +18°C° 0 mm 11 mps 753 mmHg 58%
    12:00 +18°C° 0 mm 11 mps 753 mmHg 58%
    13:00 +18°C° 0 mm 11 mps 753 mmHg 57%
    14:00 +18°C° 0 mm 12 mps 753 mmHg 57%
    15:00 +17°C° 0 mm 11 mps 753 mmHg 58%
    16:00 +17°C° 0 mm 11 mps 754 mmHg 59%
    17:00 +16°C° 0 mm 11 mps 754 mmHg 60%
    18:00 +14°C° 0 mm 11 mps 755 mmHg 61%
    19:00 +14°C° 0 mm 11 mps 755 mmHg 61%
    20:00 +13°C° 0 mm 10 mps 756 mmHg 62%
    21:00 +13°C° 0 mm 10 mps 756 mmHg 65%
    22:00 +12°C° 0 mm 10 mps 756 mmHg 68%
    23:00 +12°C° 0 mm 9 mps 756 mmHg 70%
    Show more